Regional Weather Roundup
Issued by NWS

Home | Current Version | Previous Version | Graphics & Text | Print | Product List | Glossary On
Versions: 1 2 3 4 5 6 7 8 9 10 11 12 13 14 15 16 17 18 19 20 21 22 23 24 25 26 27 28 29 30 31 32 33 34 35 36 37 38 39 40 41 42 43 44 45 46 47 48 49 50
000
ASUS43 KLOT 261410
RWRIL

ILLINOIS REGIONAL WEATHER ROUNDUP
NATIONAL WEATHER SERVICE CHICAGO/ROMEOVILLE IL
800 AM CST FRI DEC 26 2014

NOTE: "FAIR" INDICATES FEW OR NO CLOUDS BELOW 12,000 FEET WITH NO
SIGNIFICANT WEATHER AND/OR OBSTRUCTIONS TO VISIBILITY.

* THESE STATIONS ARE NOT UNDER NWS QUALITY CONTROL. THEY ALSO MAY NOT
  REPORT WEATHER SUCH AS PRECIPITATION OR FOG.

ILZ001-002-007-009-015-016-024-261500-
NORTHWEST ILLINOIS

CITY           SKY/WX    TMP DP  RH WIND       PRES   REMARKS
MOLINE         MOCLDY    41  34  76 S10       29.94R
STERLING*      PTCLDY    39  34  81 SW3       29.98R
SAVANNA*       PTCLDY    36  33  87 S7        29.95R WCI  31
$$

ILZ003-004-008-010-011-017-018-261500-
NORTH CENTRAL ILLINOIS

CITY           SKY/WX    TMP DP  RH WIND       PRES   REMARKS
ROCKFORD       MOCLDY    35  32  88 SE7       29.99R WCI  29
FREEPORT*      CLEAR     35  33  92 S10       29.97R WCI  27
ROCHELLE*      PTCLDY    35  33  93 SE5       29.99R WCI  31
DE KALB*       PTCLDY    34  32  94 S12       29.99S WCI  25
PERU*          PTCLDY    38  35  88 S14       30.00R WCI  30
$$

ILZ005-006-012>014-019>023-261500-
NORTHEAST ILLINOIS

CITY           SKY/WX    TMP DP  RH WIND       PRES   REMARKS
CHICAGO-OHARE  PTCLDY    37  32  82 S9        30.00R WCI  30
CHICAGO-MIDWAY FAIR      39  34  82 S9G20     30.03R WCI  33
AURORA         PTCLDY    34  31  88 S5        30.01R WCI  30
LANSING*       CLEAR     35  32  90 S8        30.05R WCI  28
JOLIET*        CLEAR     37  33  86 S8        30.03R WCI  30
WAUKEGAN       CLEAR     37  32  82 SW15      29.99R WCI  28
DUPAGE AIRPORT CLEAR     34  31  88 S8        30.00R WCI  27
KANKAKEE*      CLEAR     37  33  87 S16G22    30.05R WCI  27
WHEELING       CLEAR     37  32  82 S8        30.03R WCI  31
MORRIS*        CLEAR     35  34  94 S5        30.01S WCI  31
ROMEOVILLE*    CLEAR     35  33  91 S8        30.03R WCI  29
NORTHERLY ISL    N/A     38  32  79 S9          N/A  WCI  31
$$

LMZ740>746-261500-
SOUTHERN LAKE MICHIGAN

STATION/POSITION SKY/WX   TEMP    WIND        PRES    VSBY  WAVE
                          AIR SEA DIR/SP/G                  HT/PER
                          (F)     (DEG/KT/KT) (MB)    (MI)  (FT/S)
WAUKEGAN HARBOR            39                   N/A
HARRISON CRIB              38     200/ 23/ 28   N/A
BURNHAM HARBOR             38     190/  8/ 12   N/A
CALUMET HARBOR             38     190/  8/ 12 1015.8R
MICHIGAN CITY              38     160/ 15/ 19   N/A
$$

ILZ025>027-034>036-040-047-049-050-058-095>099-261500-
WEST-CENTRAL ILLINOIS

CITY           SKY/WX    TMP DP  RH WIND       PRES   REMARKS
QUINCY         MOCLDY    42  35  76 S13       29.99R
GALESBURG*     MOCLDY    39  35  87 S10G16    29.97R WCI  32
MACOMB*        MOCLDY    39  36  86 S14       30.00S WCI  31
JACKSONVILLE*  PTCLDY    42  37  80 S13       30.03R
PITTSFIELD*    PTCLDY    42  36  79 S8        30.03R
$$

ILZ028>032-037-038-041>044-048-051>054-059>061-261500-
CENTRAL ILLINOIS

CITY           SKY/WX    TMP DP  RH WIND       PRES   REMARKS
PONTIAC        CLEAR     38  35  87 S14G21    30.03S WCI  30
BLOOMINGTON    CLEAR     38  35  89 S16       30.05R WCI  29
DECATUR        CLEAR     39  34  82 S14       30.07R WCI  31
PEORIA         PTCLDY    37  33  85 S8        30.02R WCI  31
LACON*         PTCLDY    40  34  77 S9G22     30.00S
LINCOLN*       CLEAR     38  35  87 S10       30.05R WCI  31
SPRINGFIELD    CLEAR     40  34  79 S13       30.05R
TAYLORVILLE    CLEAR     37  34  87 S14       30.07S WCI  29
$$

ILZ033-039-045-046-055>057-062-063-261500-
EAST-CENTRAL ILLINOIS

CITY           SKY/WX    TMP DP  RH WIND       PRES   REMARKS
CHAMPAIGN      CLEAR     37  33  85 S14       30.08R WCI  28
DANVILLE*      CLEAR     38  34  85 S13       30.07R WCI  30
RANTOUL*       CLEAR     38  35  86 S8        30.08R WCI  33
MATTOON        CLEAR     38  34  85 S12       30.09S WCI  30
PARIS*         CLEAR     39  36  89 S14G20    30.12R WCI  30
$$

ILZ079-100>102-261500-
SOUTHWEST ILLINOIS

CITY           SKY/WX    TMP DP  RH WIND       PRES   REMARKS
ALTON          CLEAR     41  36  81 S13       30.08S
BELLEVILLE     CLEAR     39  37  92 S10       30.09S WCI  33
CAHOKIA*       CLEAR     39  35  86 S7        30.08S WCI  34
SPARTA*        CLEAR     40  34  81 S12       30.13S
$$

ILZ064>066-069>071-074>076-080>082-084>086-088>090-092>094-261500-
SOUTH-CENTRAL ILLINOIS

CITY           SKY/WX    TMP DP  RH WIND       PRES   REMARKS
CARBONDALE     PTCLDY    40  34  79 S13       30.16S
CAIRO*         PTCLDY    43  37  78 S10       30.20R
EFFINGHAM*     CLEAR     38  32  78 SE5       30.14R WCI  35
MARION         MOCLDY    41  36  81 S12       30.18R
MT. VERNON     CLEAR     39  32  75 S12       30.15S WCI  32
CENTRALIA*     CLEAR     40  33  78 S13       30.12R
SALEM*         CLEAR     44  37  76 S14G21    30.13R
METROPOLIS*    PTCLDY    41  37  83 S3        30.20R
$$

ILZ067-068-072-073-078-083-087-091-261500-
SOUTHEAST ILLINOIS

CITY           SKY/WX    TMP DP  RH WIND       PRES   REMARKS
LAWRENCEVILLE  CLEAR     35  33  92 S8        30.18R WCI  29
FLORA*         CLEAR     37  34  88 S12       30.15S WCI  29
FAIRFIELD*     CLEAR     38  35  87 S8        30.16S WCI  32
HARRISBURG*    CLEAR     41  36  82 S5        30.19S
ROBINSON*      CLEAR     35  33  93 S7        30.17R WCI  29
CARMI*         CLEAR     38  37  97 S8        30.18S WCI  32
$$

ABBREVIATIONS USED IN REMARKS
   TC - TEMPERATURE IN CELSIUS
  WCI - WIND CHILL INDEX
   HX - HEAT INDEX
  VSB - VISIBILITY
$$




USA.gov is the U.S. government's official web portal to all federal, state and local government web resources and services.